COSMOS 2110 (GLONASS)

Satellite information

Favourite Embed

Satellite Type and Status

PAYLOADIN ORBIT

Key statistics

Satellite COSMOS 2110 (GLONASS) at a glance.

Uptime

12691

Days in orbit

Revolutions

≈ 2.1

Per day

Orbit

MEO

Medium Earth Orbit

Inclination

64.8

Latest

Satellite identification and parameters

Extended collection of information and parameters for COSMOS 2110 (GLONASS).

Object identification

Identified? True

Debris? False

Object name: COSMOS 2110 (GLONASS)

International designator: 1990-110B

Object number (NORAD): 21007

Object ID (CCSDS): 21007

Country: COMMONWEALTH OF INDEPENDENT STATES (CIS)

Current information (Y/N): Y

RCS size: LARGE

Orbital parameters

Period: 675.734 minutes

Inclination: 64.7695 deg

SMA: 25508.056 km

Apoapsis: 19240.569 km

Periapsis: 19019.274 km

RAAN: 81.359 deg

Eccentricy: 0.00433774

Argument of periapsis: 200.1315 deg

Mean anomaly: 157.5995 deg

Mean motion: 2.13101603 rev/day

Mean motion (dot): 0.00000053 rev/day2

B* drag term: 0.0 1/REarth

Two-line elements (TLE)

Creation date: Sept. 5, 2025, 4:46 a.m.

Reference frame: TEME

Reference center: EARTH

Epoch: Sept. 4, 2025, 12:58 a.m. UTC

TLE line 0: 0 COSMOS 2110 (GLONASS)

TLE line 1: 1 21007U 90110B 25247.04040922 .00000053 00000-0 00000-0 0 9990

TLE line 2: 2 21007 64.7695 81.3590 0043377 200.1315 157.5995 2.13101603270367

Live tracking on map

Real-time ground track for satellite COSMOS 2110 (GLONASS).

In-orbit conjunctions

There are no conjunctions computed for COSMOS 2110 (GLONASS), at the moment. Check back to stay up to date, as we update our databases every day.

Go to all conjunctions

Associated space launch

GLONASS navigation satellites

COSMOS 2110 (GLONASS) was lifted into orbit during the mission ‘Proton | Uragan 39 to 41’, on board a Proton space rocket.

The launch took place on Dec. 8, 1990, 2:43 a.m. from 200/40.

For more information about the launch, click the button.

Launch to space Proton | Uragan 39 to 41
Proton | Uragan 39 to 41

Agency: N/A

Status: Launch Successful

Launch date: Dec. 8, 1990, 2:43 a.m. UTC

Rocket: Proton

Launch pad: 200/40

Location: Baikonur Cosmodrome, Republic of Kazakhstan

...

Latest news about this satellite

There are no fresh news available about this satellite. Check back as we update our databases every day.


Newsletter sign-up

Weekly statistics, charts and insights to help you stay on top of the space industry.